STARLINK-35717, 66839

Orbit data source: Space-Track

STARLINK-35717, 66839 is a payload satellite owned by SpaceX/Seattle (US) in LEO that was launched on Tue, 02 Dec 2025 UTC via an FALCON 9 launch vehicle from the Air Force Western Test Range (AFWTR). Payload-class satellites include a variety of spacecraft equipped with specific instruments for various scientific and technological missions. These include communications satellites like Starlink; space stations such as the ISS; scientific satellites like the Hubble; Earth observation satellites from companies like Planet Labs, Umbra, and HawkEye 360; GPS; miniature CubeSats for education and research; and military/defense satellites.

Loading next visibility...
Identifier
66839, 2025-280U
Orbit
LEO
Country
Flag of USUS
Related business
Manufacturer
SpaceX/Seattle
Mission
Operational Commercial Communications
Bus & Motor
STARLINK V2MO, Unknown motor
Mass
575 kg wet, ~530 kg dry
Launch date (UTC)
2025-12-02 (7 months ago)
Launch vehicle
FALCON 9
Launch site
Air Force Western Test Range (AFWTR)
Object type
Payload
Rocket body
Debris
Shape & HBR
Box + 2 Pan, 17.7 m
Radar Cross Section
36.964 m², Large (>1 m²)

Expand to show TLE details & history
Last TLE update: 17 hours ago

TLE from 17 hours ago
0 STARLINK-35717
1 66839U 25280U   26171.14941523  .00004074  00000-0  34891-3 0  9998
2 66839  70.0014  76.1087 0003021 268.5769  91.5043 14.98339671 31427
Epoch: 2026-06-20T03:35Z
TLE epoch observation values (Epoch: 2026-06-20T03:35:09.475Z)
Latitude
-0.00014°
Longitude
113.95099°
Altitude
574.506 km
Speed
7.574 km/s
True Right ascension
05h 04m 26s
True Declination
0° 00' 01"
Sunlit
Object was in daylight at epoch
Visualization orbit readout
Latitude
Unknown
Longitude
Unknown
Altitude
Unknown
Speed
Unknown
Apparent Right ascension
Unknown
Apparent Declination
Unknown
Sunlit
N/A
Visualization observer readout
Local Sidereal Time
07:16:04
Azimuth
Unknown
Elevation
Unknown
Doppler factor
Unknown
Orbital elements
Apogee altitude
572.073 km
Perigee altitude
567.875 km
Semi-major axis
6,948.111 km
Eccentricity
0.0003
Inclination
70.0014°
RAAN
76.1087°
Arg. of periapsis
268.5769°
True anomaly
91.53891°
Mean anomaly
91.5043°
Eccentric anomaly
91.5216°
Mean motion
3.74751 °/min
Orbital period
96.06 mins
BSTAR
0.00034891
Loading maneuver chart data...
Computing Atmospheric mass density...
Loading historical data...
Loading historical data...
Loading historical data...
Loading historical data...
Loading historical data...
Loading historical data...
Loading historical data...

Documentation

Showing up to 5 results
|